User: anonymous   Login
Location: Bazugues
(43.4465°N, 0.3432°E)
Time: 15:55:22
(UTC+00:00)
Language:

Cosmos 1959 Rocket - Orbit

View from above orbital plane
View from above orbital plane
View from above satellite
View from above satellite

Ground track
Ground track

The orbit is defined by the following mean orbital elements,

1 19325U          26076.21734212 +.00000000 +00000-0 +46867-4 0 00001
2 19325  82.9544 167.8777 0032188 281.1776 139.3954 13.77910000    03
Epoch (UTC): 17 March 2026 05:12:58
Eccentricity: 0.0032188
inclination: 82.9544°
perigee height: 948 km
apogee height: 995 km
right ascension of ascending node: 167.8777°
argument of perigee: 281.1776°
revolutions per day: 13.77910000
mean anomaly at epoch: 139.3954°

The dashed part of the orbit path shows where the satellite is in the earth's shadow,  

DLR